Regional Weather Roundup
Issued by NWS

Home | Current Version | Previous Version | Graphics & Text | Print | Product List | Glossary On
Versions: 1 2 3 4 5 6 7 8 9 10 11 12 13 14 15 16 17 18 19 20 21 22 23 24 25 26 27 28 29 30 31 32 33 34 35 36 37 38 39 40 41 42 43 44 45 46 47 48 49 50
000
ASUS43 KMKX 140500
RWRWI

WISCONSIN REGIONAL WEATHER ROUNDUP
NATIONAL WEATHER SERVICE MILWAUKEE/SULLIVAN WI
1100 PM CST SAT FEB 13 2016

NOTE: "FAIR" INDICATES FEW OR NO CLOUDS BELOW 12,000 FEET WITH NO
SIGNIFICANT WEATHER AND/OR OBSTRUCTIONS TO VISIBILITY.

WIZ001-002-006>008-014>016-023>028-140600-
NORTHWEST WISCONSIN

CITY           SKY/WX    TMP DP  RH WIND       PRES   REMARKS
SUPERIOR ARPT  CLOUDY    -7 -11  83 S3        30.37S
ASHLAND        CLOUDY   -10 -16  74 S3        30.37F
HAYWARD        CLOUDY   -14 -18  82 CALM      30.33F
SIREN          CLOUDY    -8 -16  70 CALM      30.34F
CUMBERLAND     CLOUDY    -4 -15  59 SE5       30.32F WCI -15
RICE LAKE      CLOUDY    -3 -13  62 E6        30.36F WCI -15
CHETEK         CLOUDY    -8 -15  73 SE5       30.36F WCI -20
LADYSMITH      CLOUDY    -9 -15  74 E5        30.37F WCI -20
EAU CLAIRE     NOT AVBL
MENOMONIE      PTCLDY     0 -13  55 SE3       30.38F
NEW RICHMOND   CLOUDY     0 -12  56 SE3       30.34F
OSCEOLA        CLOUDY     3 -10  55 SE7       30.37F WCI  -9
$$

WIZ003>005-009-010-017-018-140600-
NORTH CENTRAL WISCONSIN

CITY           SKY/WX    TMP DP  RH WIND       PRES   REMARKS
MANITOWISH WTR CLOUDY   -18 -24  76 CALM      30.30F
ARBOR VITAE    CLOUDY    -9 -15  75 CALM      30.31S
WOODRUFF       CLOUDY    -9 -15  75 CALM      30.31S
RHINELANDER    CLOUDY   -12 -17  78 CALM      30.31F
EAGLE RIVER    CLOUDY   -14 -20  74 CALM      30.31F
LAND O LAKES   CLOUDY   -17 -23  76 CALM      30.31F
PHILLIPS       CLOUDY   -14 -19  78 CALM      30.32S
TOMAHAWK       CLOUDY   -15 -20  78 CALM      30.33F
MEDFORD        CLOUDY   -12 -17  82 CALM      30.33S
MERRILL        CLOUDY   -12 -17  78 CALM      30.37S
$$

WIZ029-030-035-036-043>047-140600-
CENTRAL WISCONSIN

CITY           SKY/WX    TMP DP  RH WIND       PRES   REMARKS
WAUSAU         CLOUDY    -6 -11  79 CALM      30.36F
MOSINEE        CLOUDY    -4 -11  71 CALM      30.38F
MARSHFIELD     PTCLDY    -5 -13  68 CALM      30.36S
STEVENS POINT  CLOUDY   -11 -16  78 CALM      30.40S
WAUPACA        CLOUDY    -4 -12  70 CALM      30.44S
WAUTOMA        NOT AVBL
WISC RAPIDS    CLOUDY    -5 -13  68 CALM      30.41F
CAMP DOUGLAS   CLOUDY    -7 -10  84 SE5       30.40F WCI -18
$$

WIZ011>013-019>022-031-037>040-048>050-140600-
NORTHEAST WISCONSIN

CITY           SKY/WX    TMP DP  RH WIND       PRES   REMARKS
ANTIGO         CLOUDY   -11 -17  77 CALM      30.33F
SHAWANO        PTCLDY     1  -7  68 CALM      30.43F
OCONTO         CLOUDY    -5 -11  78 CALM      30.44F
STURGEON BAY   CLOUDY     1  -9  60 SW5       30.44F WCI  -8
GREEN BAY      CLOUDY    -4 -11  72 SW3       30.44F
MANITOWOC      NOT AVBL
APPLETON       CLOUDY     3 -13  47 S3        30.41S
CLINTONVILLE   CLOUDY    -4 -13  65 CALM      30.43S
OSHKOSH        CLOUDY    -2 -11  65 S5        30.44R WCI -12
$$

WIZ032>034-041-042-053>061-140600-
SOUTHWEST WISCONSIN

CITY           SKY/WX    TMP DP  RH WIND       PRES   REMARKS
LA CROSSE      CLOUDY     1  -9  62 SE5       30.41F WCI  -9
SPARTA         CLOUDY    -9 -13  79 CALM      30.42S
VIROQUA        CLOUDY     3  -9  55 SE6       30.36S WCI  -8
BOSCOBEL       CLOUDY     0  -7  72 CALM      30.44F
PRAIRIE DU CHI CLOUDY     5  -6  60 E3        30.43F
PLATTEVILLE    CLOUDY     7  -3  63 E5        30.39F WCI  -1
$$

WIZ056-057-062-063-064-067-068-140600-
SOUTH CENTRAL WISCONSIN

CITY           SKY/WX    TMP DP  RH WIND       PRES   REMARKS
REEDSBURG      CLOUDY    -2  -9  69 CALM      30.42F
BARABOO/DELLS  CLOUDY    -2 -12  65 CALM      30.42S
LONE ROCK      NOT AVBL
MINERAL POINT  CLOUDY     7  -8  51 E3        30.38F
MADISON        CLOUDY     4  -6  63 E5        30.43F WCI  -5
MIDDLETON      CLOUDY     2  -4  76 CALM      30.43F
WATERTOWN      CLOUDY     2  -3  78 CALM      30.44F
MONROE         CLOUDY     9   0  66 E3        30.40F
JANESVILLE     CLOUDY    10   0  61 E3        30.44F
$$

WIZ051-052-058>065-066-070>072-140600-
SOUTHEAST WISCONSIN

CITY           SKY/WX    TMP DP  RH WIND       PRES   REMARKS
MILWAUKEE      MOCLDY     7  -5  57 NW3       30.47S
WAUKESHA       CLOUDY     1  -6  71 CALM      30.46S
MILWAUKEE/TIMM PTCLDY     3  -4  72 CALM      30.48S
RACINE         PTCLDY     6  -6  57 W5        30.49S WCI  -3
BURLINGTON     CLOUDY     1  -4  79 CALM      30.46F
KENOSHA        CLOUDY     7  -3  64 N3        30.47S
FOND DU LAC    CLOUDY     0  -9  65 S5        30.44F WCI -10
SHEBOYGAN      CLOUDY    -1  -7  75 CALM      30.45F
WEST BEND      CLOUDY     0  -8  71 CALM      30.44F
JUNEAU         CLOUDY     1  -6  71 SE6       30.45S WCI -11
$$

LSZ147-162-140600-
LAKE SUPERIOR

STATION/POSITION TIME  TEMP    WIND        PRES    WAVE
                       AIR SEA DIR/SP/G            HT/PER
                 (UTC) (F)     (DEG/KT/KT) (MB)    (FT/S)
DEVILS ISLAND    0400    9     190/  7/  8 1030.8F
SAXON HARBOR     0440  -12                 1028.4F
$$

LMZ867-665-643>646-140600-
LAKE MICHIGAN

STATION/POSITION TIME  TEMP    WIND        PRES    WAVE
                       AIR SEA DIR/SP/G            HT/PER
                 (UTC) (F)     (DEG/KT/KT) (MB)    (FT/S)
CHAMBERS ISLAND  0400    6     200/  5/  7 1030.8F
SISTER BAY       0404    5        CALM       N/A
ALGOMA LAKESHORE 0311             CALM       N/A
KEWAUNEE LAKESHO 0400    4     300/  6/  7 1030.4F
SHEBOYGAN LAKESH 0400    6     240/  7/  8 1033.6F
PORT WASHINGTON  0400    5     270/  2/  4 1032.8
MILWAUKEE LAKESH 0410   10     290/  4/  5   N/A
KENOSHA   LAKESH 0400    9     300/  4/  6 1031.8F
$$

TC  - TEMPERATURE IN CELSIUS
VSB - VISIBILITY IN STATUTE MILES
WCI - WIND CHILL INDEX
HX  - HEAT INDEX




USA.gov is the U.S. government's official web portal to all federal, state and local government web resources and services.